Flag for Greenland

Past Weather in Summit Camp, Greenland — Yesterday and Last 2 Weeks

Now
31 °F

Chilly.


Feels Like: 25 °F
Forecast: -23 / -32 °F
Wind: 7 mph from Northwest

Location: Aputiteeq
Current Time: Sep 23, 2020 at 7:58:35 pm
Latest Report: Sep 23, 2020 at 7:00 pm
Visibility: N/A
Pressure29.94 "Hg(20.03 "Hg at 3207m altitude)
Humidity: 60%
Dew Point: 19 °F
Location of Summit CampLocation

Past Weather in Summit Camp — Graph

°F

Summit Camp Temperature Yesterday

Maximum temperature yesterday: 31 °F (at 4:00 pm)
Minimum temperature yesterday: 28 °F (at 2:00 am)
Average temperature yesterday: 29 °F

High & Low Weather Summary for the Past Weeks

 TemperatureHumidityPressure
High40 °F (Sep 16, 5:00 pm)100% (Sep 10, 3:00 pm)30.12 "Hg (Sep 10, 3:00 pm)
Low27 °F (Sep 15, 4:00 pm)35% (Sep 9, 9:00 am)29.26 "Hg (Sep 19, 12:00 pm)
Average32 °F77%29.68 "Hg
* Reported Sep 8 6:00 pm — Sep 23 6:00 pm, Summit Camp. Weather by CustomWeather, © 2020

Note: Actual official high and low records may vary slightly from our data, if they occured in-between our weather recording intervals... More about our weather records

Summit Camp Weather History for the Previous 24 Hours

Scroll right to see more
 ConditionsComfort  
Time TempWeatherWind HumidityBarometerVisibility
6:00 pm
Wed, Sep 23
31 °FChilly.3 mph60%29.93 "HgN/A
5:00 pm32 °FChilly.3 mph75%29.91 "HgN/A
4:00 pm33 °FChilly.1 mph66%29.89 "HgN/A
3:00 pm33 °FChilly.3 mph66%29.89 "HgN/A
2:00 pm32 °FChilly.5 mph63%29.88 "HgN/A
1:00 pm31 °FChilly.6 mph70%29.87 "HgN/A
11:00 am31 °FChilly.7 mph68%29.87 "HgN/A
10:00 am31 °FChilly.7 mph56%29.86 "HgN/A
9:00 am31 °FChilly.14 mph48%29.86 "HgN/A
8:00 am30 °FChilly.13 mph47%29.84 "HgN/A
7:00 am28 °FChilly.7 mph66%29.83 "HgN/A
6:00 am28 °FChilly.9 mph65%29.82 "HgN/A
5:00 am28 °FChilly.7 mph77%29.81 "HgN/A
4:00 am28 °FChilly.7 mph73%29.80 "HgN/A
2:00 am29 °FChilly.6 mph67%29.79 "HgN/A
1:00 am29 °FChilly.6 mph74%29.79 "HgN/A
12:00 am29 °FChilly.6 mph73%29.78 "HgN/A
11:00 pm
Tue, Sep 22
29 °FChilly.3 mph70%29.78 "HgN/A
10:00 pm29 °FChilly.5 mph63%29.78 "HgN/A
9:00 pm29 °FChilly.2 mph63%29.77 "HgN/A
8:00 pm30 °FChilly.5 mph54%29.76 "HgN/A
Weather by CustomWeather, © 2020

See weather overview